TimeCDT,TemperatureF,Dew PointF,Humidity,Sea Level PressureIn,VisibilityMPH,Wind Direction,Wind SpeedMPH,Gust SpeedMPH,PrecipitationIn,Events,Conditions,WindDirDegrees,DateUTC
12:54 AM,74,55,41,29.75,6,Calm,Calm,,,,Scattered Clouds,,2013-04-22 05:54:00
3:57 AM,69,53,46,29.75,6,NW,2.2,,,,Clear,320,2013-04-22 08:57:00
5:40 AM,62.6,28.4,27,30.00,10.0,Calm,Calm,-,N/A,,Scattered Clouds,0,2013-04-22 10:40:00
6:40 AM,60.8,28.4,29,29.78,10.0,Calm,Calm,-,N/A,,Scattered Clouds,0,2013-04-22 11:40:00
6:54 AM,64,53,60,29.81,6,East,2.2,,,,Clear,90,2013-04-22 11:54:00
7:40 AM,60.8,28.4,29,30.04,10.0,Calm,Calm,-,N/A,,Scattered Clouds,0,2013-04-22 12:40:00
8:40 AM,66.2,30.2,26,30.06,8.0,Calm,Calm,-,N/A,,Scattered Clouds,0,2013-04-22 13:40:00
9:45 AM,69.8,26.6,20,29.86,8.0,East,5.8,-,N/A,,Clear,100,2013-04-22 14:45:00
9:46 AM,70,46,31,29.90,19,East,4.5,,,,Clear,90,2013-04-22 14:46:00
10:40 AM,73.4,26.6,18,30.09,8.0,ENE,6.9,-,N/A,,Partly Cloudy,60,2013-04-22 15:40:00
11:40 AM,80.6,26.6,14,30.08,8.0,East,5.8,-,N/A,,Scattered Clouds,90,2013-04-22 16:40:00
12:40 PM,82.4,24.8,12,29.80,8.0,East,4.6,-,N/A,,Scattered Clouds,90,2013-04-22 17:40:00
12:48 PM,88,54,21,29.87,19,NE,4.5,,,,Clear,50,2013-04-22 17:48:00
1:45 PM,87.8,26.6,11,30.01,10.0,Calm,Calm,-,N/A,,Scattered Clouds,0,2013-04-22 18:45:00
2:40 PM,89.6,24.8,10,29.98,10.0,ESE,4.6,-,N/A,,Scattered Clouds,110,2013-04-22 19:40:00
3:40 PM,91.4,24.8,9,29.64,10.0,NNE,9.2,-,N/A,,Scattered Clouds,30,2013-04-22 20:40:00
3:45 PM,96,54,16,29.68,19,East,6.7,,,,Clear,90,2013-04-22 20:45:00
4:40 PM,93.2,23.0,8,29.89,10.0,NNW,2.3,-,N/A,,Scattered Clouds,330,2013-04-22 21:40:00
5:40 PM,93.2,21.2,7,29.86,10.0,NNE,8.1,-,N/A,,Scattered Clouds,30,2013-04-22 22:40:00
6:40 PM,93.2,21.2,7,29.58,10.0,ENE,4.6,-,N/A,,Scattered Clouds,60,2013-04-22 23:40:00
6:45 PM,95,53,15,29.56,19,ENE,4.5,,,,Clear,70,2013-04-22 23:45:00
7:44 PM,91.4,21.2,8,29.85,10.0,ENE,11.5,-,N/A,,Mostly Cloudy,70,2013-04-23 00:44:00
8:50 PM,84.2,23.0,11,29.86,10.0,ENE,5.8,-,N/A,,Scattered Clouds,70,2013-04-23 01:50:00
9:47 PM,82.4,19.4,10,29.60,10.0,Calm,Calm,-,N/A,,Scattered Clouds,0,2013-04-23 02:47:00
9:52 PM,84,59,32,29.55,6,SSE,2.2,,,,,160,2013-04-23 02:52:00
10:42 PM,80.6,21.2,11,29.88,10.0,Calm,Calm,-,N/A,,Clear,0,2013-04-23 03:42:00
11:42 PM,77.0,21.2,12,29.90,10.0,NE,6.9,-,N/A,,Clear,40,2013-04-23 04:42:00